Location: Orange
(33.2833°S, 149.1000°E)
Time: 01:32:46
(UTC+11:00)

Envisat - Visible Passes

Search period start: 05 December 2021 00:00
Search period end: 15 December 2021 00:00
Orbit: 764 x 766 km, 98.2° (Epoch: 04 December)

Date Brightness Start Highest point End Pass type
(mag) Time Alt. Az. Time Alt. Az. Time Alt. Az.
05 Dec 4.9 04:38:23 10° NE 04:42:57 34° ESE 04:47:32 10° S visible
06 Dec 6.0 04:03:39 10° E 04:06:27 15° ESE 04:09:16 10° SSE visible
07 Dec 3.6 05:03:05 10° NNE 05:08:07 62° ESE 05:13:11 10° S visible
08 Dec 5.3 04:27:16 10° NE 04:31:28 26° ESE 04:35:43 10° SSE visible
09 Dec 6.2 03:53:28 10° E 03:55:03 11° ESE 03:56:39 10° SE visible
10 Dec 4.2 04:51:44 10° NE 04:56:36 48° ESE 05:01:31 10° S visible
11 Dec 5.7 04:16:19 10° ENE 04:20:01 21° ESE 04:23:46 10° SSE visible
12 Dec 3.1 05:16:43 10° NNE 05:21:49 88° ESE 05:26:59 10° SSW visible
13 Dec 4.7 04:40:28 10° NE 04:45:06 37° ESE 04:49:48 10° S visible
14 Dec 5.9 04:05:32 10° ENE 04:08:36 16° ESE 04:11:41 10° SSE visible
